Weather in Sholokhovskiy

Russia / Rostov Oblast     48°16′57″N   41°02′47″E
temp.,
°C
wind,
m/s
gust,
m/s
humid.,
%
clouds,
%
prec.,
mm/h
press.,
hPa
HPBL,
m
9 march, tue
tue900:000sw71295100 0.1 1011594
03:000wsw51096100 0.7 1011517
06:00−1w3981100 0.5 1011481
09:000wnw797392 0.5 1012963
12:00+2wnw686013 0.0 10141428
15:00+2wnw795821 0.3 10141618
18:00−1wnw6107057 0.2 1015495
21:00−3nw597768 0.3 1018504
10 march, wed
wed1000:00−4nw467427 0.0 1020576
03:00−5nw576819 0.0 10211042
06:00−6nw576359 0.0 1022991
09:00−5nw675229 0.0 10251029
12:00−3nnw56420 0.0 10251232
15:00−2nnw45360 0.0 10251427
18:00−3nnw354492 0.0 1025858
21:00−5nne454995 0.0 1026711
11 march, thu
thu1100:00−6nne454735 0.0 1026659
03:00−6ne455217 0.0 1027693
06:00−8ne46570 0.0 1028614
09:00−8ne67510 0.0 1029730
12:00−7ne66340 0.0 1029964
15:00−6ne67330 0.0 10291071
18:00−8ne68370 0.0 10281019
21:00−9ene68411 0.0 1030893
12 march, fri
fri1200:00−10ene68440 0.0 1031763
03:00−11ene58480 0.0 1031635
06:00−12ene58520 0.0 1032547
09:00−10ene46470 0.0 1033570
12:00−7e56320 0.0 10331015
15:00−4e45280 0.0 10321191
18:00−5ese45360 0.0 10331116
21:00−6ese46420 0.0 1034905
13 march, sat
sat1300:00−7se25450 0.0 1034628
03:00−7se364618 0.0 1034498
06:00−8se474437 0.0 1034396
09:00−6se573447 0.0 1035682
12:00−4se562993 0.0 1034900
15:00−2se562588 0.0 10321024
18:00−3se463144 0.0 1031647
21:00−4se483422 0.0 1031400